Powrót do katalogu

ECHO 1 DEB

METAL OBJ

AktywnyLEO
NORAD 53·DEBRIS·🇺🇸 United States

Wystrzelony Aug 12, 1960 z Cape Canaveral Space Force Station

Loading…

Następne Przeloty (najbliższe 24 godziny)

TLE

ŚwieżeSource: Space-Track

Epoka: Sep 6, 2026, 23:48 UTC

1 00053U 60009E   26249.99201468 -.00000166  00000-0 -80543-3 0  9993
2 00053  47.2764  89.9828 0098381 318.3193  41.0130 12.17413383945393

Śledź ECHO 1 DEB w czasie rzeczywistym z AllMySat

Download on the App Store